Regional Weather Roundup
Issued by NWS

Home | Current Version | Previous Version | Graphics & Text | Print | Product List | Glossary On
Versions: 1 2 3 4 5 6 7 8 9 10 11 12 13 14 15 16 17 18 19 20 21 22 23 24 25 26 27 28 29 30 31 32 33 34 35 36 37 38 39 40 41 42 43 44 45 46 47 48 49 50
790
ASUS43 KFSD 262202
RWRSD

WEATHER ROUNDUP FOR SOUTH DAKOTA
NATIONAL WEATHER SERVICE SIOUX FALLS SD
500 PM CDT TUE JUL 26 2016

NOTE: "FAIR" INDICATES FEW OR NO CLOUDS BELOW 12,000 FEET WITH NO
SIGNIFICANT WEATHER AND/OR OBSTRUCTIONS TO VISIBILITY.


SDZ001>005-009-010-012>017-262300-
NORTHWEST AND NORTH CENTRAL SOUTH DAKOTA

CITY           SKY/WX    TMP DP  RH WIND       PRES   REMARKS
BUFFALO          N/A     88  54  31 NE14G21   29.98S
FAITH            N/A     88  50  27 N13G21    30.01R
MOBRIDGE       PTSUNNY   86  66  51 SE10      29.96R
$$

SDZ012>016-024>037-041>051-057-063-072>074-262300-
SOUTHWEST AND SOUTH CENTRAL SOUTH DAKOTA

CITY           SKY/WX    TMP DP  RH WIND       PRES   REMARKS
RAPID CTY ARPT MOSUNNY   87  56  34 E10       30.00F
PIERRE         SUNNY     93  62  35 E17G26    29.90F
CUSTER         SUNNY     80  52  37 SE9       30.15F
ELLSWORTH AFB  MOSUNNY   86  57  37 NE12      30.01S
PHILIP         SUNNY     93  59  31 NE12G23   29.94F
PINE RIDGE     PTSUNNY   94  60  32 VRB7      29.96F
WINNER         MOCLDY    95  61  32 SE10      29.94F HX  95
$$

SDZ004>011-016>023-039-040-262300-
NORTHEAST SOUTH DAKOTA

CITY           SKY/WX    TMP DP  RH WIND       PRES   REMARKS
ABERDEEN       CLOUDY    74  66  76 SE8       29.96F
WATERTOWN      LGT RAIN  72  65  78 S6        30.02F
BROOKINGS      RAIN      76  71  85 N6        30.05R
SISSETON         N/A     72  66  81 W7        30.00R
$$

SDZ017-020-022-023-036>040-048>070-262300-
SOUTHEAST SOUTH DAKOTA

CITY           SKY/WX    TMP DP  RH WIND       PRES   REMARKS
SIOUX FALLS    CLOUDY    85  64  49 SE12      30.01F
HURON          PTSUNNY   76  67  73 E9        29.97F
CHAMBERLAIN    CLOUDY    81  71  73 NE14G24   29.95R
MITCHELL       CLOUDY    88  60  38 SE12      29.97F
YANKTON        MOSUNNY   88  66  48 SE16      29.96S
$$

ABBREVIATIONS USED IN REMARKS
   TC - TEMPERATURE IN CELSIUS
  WCI - WIND CHILL INDEX
   HX - HEAT INDEX
  VSB - VISIBILITY





USA.gov is the U.S. government's official web portal to all federal, state and local government web resources and services.